Tracking 19193 objects as of 22-Jun-2018
HD Live streaming from Space Station
objects crossing your sky now

FENGYUN 1C DEB

Track FENGYUN 1C DEB now!
10-day predictions


NORAD ID: 31813
Int'l Code: 1999-025CHB
Perigee: 651.2 km
Apogee: 873.1 km
Inclination: 99.4 °
Period: 99.9 minutes
Semi major axis: 7133 km
RCS: 0.0151 m2 (small)
Launch date: May 10, 1999
Source: People's Republic of China (PRC)
Launch site: Taiyaun Space Center, China (TSC)

Note: This is SATELLITE DEBRIS
aabbcc
Your satellite tracking list
Your tracking list is empty




NASA's NSSDC Master Catalog

Two Line Element Set (TLE):
1 31813U 99025CHB 18173.10206734  .00000072  00000-0  35253-4 0  9995
2 31813  99.4208 276.7695 0155535  44.0103 317.3344 14.41049263587670
Source of the keplerian elements: AFSPC